Location: Caltech
(34.1382°N, 118.1253°W)
Time: 16:11:39
(UTC-08:00)

Cosmos 1626 - Visible Passes

Search period start: 21 January 2018 00:00
Search period end: 31 January 2018 00:00
Orbit: 495 x 499 km, 82.5° (Epoch: 21 January)

Date Brightness Start Highest point End Pass type
(mag) Time Alt. Az. Time Alt. Az. Time Alt. Az.
21 Jan 5.4 04:25:24 10° NE 04:26:32 11° ENE 04:27:39 10° E visible
21 Jan 2.8 05:58:35 10° NNW 06:01:57 33° W 06:05:19 10° SSW visible
21 Jan 2.1 18:05:52 10° S 18:09:33 89° ESE 18:13:17 10° N visible
22 Jan 2.2 05:38:30 17° NNW 05:41:09 51° W 05:44:46 10° S visible
22 Jan 2.2 17:45:06 10° S 17:48:44 56° E 17:52:23 10° NNE visible
23 Jan 1.9 05:18:54 36° NNW 05:20:20 81° W 05:24:03 10° S visible
23 Jan 5.6 19:03:08 10° WNW 19:03:23 10° WNW 19:03:38 10° WNW visible
24 Jan 2.4 04:59:23 64° ENE 04:59:29 64° E 05:03:10 10° SSE visible
24 Jan 5.2 18:40:14 10° WSW 18:42:25 15° WNW 18:44:37 10° NW visible
25 Jan 3.9 04:39:55 29° SE 04:39:55 29° SE 04:42:07 10° SSE visible
25 Jan 4.8 18:18:33 10° SW 18:21:28 22° WNW 18:24:24 10° NNW visible
26 Jan 5.1 04:20:28 12° SE 04:20:28 12° SE 04:20:54 10° SE visible
26 Jan 4.1 17:57:13 10° SW 18:00:33 32° W 18:03:55 10° NNW visible
27 Jan 3.2 17:36:04 10° SSW 17:39:39 49° W 17:43:16 10° N visible
